Location: DARK SKY Beskydy - Park tmavé oblohy, www.darkskybeskydy.cz
(49.4926°N, 18.5016°E)
Time: 23:59:09
(UTC+01:00)

Tiangong - Pass Details

Date: 04 December 2022
Orbit: 383 x 386 km, 41.5° (Epoch: 28 January)

Event Time Altitude Azimuth Distance (km) Brightness Sun altitude
Rises 17:21:04 0° 236° (SW) 2,253 3.3 -14.4°
Reaches altitude 10° 17:23:33 10° 216° (SW) 1,403 1.5 -14.8°
Maximum altitude 17:25:46 18° 171° (S) 1,041 0.1 -15.1°
Enters shadow 17:27:14 14° 138° (SE) 1,214 0.1 -15.4°
